User: anonymous   Login
Location: Unspecified
(0.0000°N, 0.0000°E)
Time: 06:09:51
(UTC+00:00)
Language:

DSCS II F-15 - Orbit

View from above orbital plane
View from above orbital plane
View from above satellite
View from above satellite

Ground track
Ground track

The orbit data is extracted from the following two-line orbital elements,

1 20202U 89069A   17254.26674150 0.00000000  00000-0  00000-0 0    01
2 20202  15.3623   2.8993 0016832 200.9855 158.9573  0.98605835    00
Epoch (UTC): 11 September 2017 06:24:06
Eccentricity: 0.0016832
inclination: 15.3623°
perigee height: 36188 km
apogee height: 36331 km
right ascension of ascending node: 2.8993°
argument of perigee: 200.9855°
revolutions per day: 0.98605835
mean anomaly at epoch: 158.9573°
orbit number at epoch: 0

The dashed part of the orbit path shows where the satellite is in the earth's shadow,  

DLR